Regional Weather Roundup
Issued by NWS

Home | Current Version | Previous Version | Text Only | Print | Product List | Glossary On
Versions: 1 2 3 4 5 6 7 8 9 10 11 12 13 14 15 16 17 18 19 20 21 22 23 24 25 26 27 28 29 30 31 32 33 34 35 36 37 38 39 40 41 42 43 44 45 46 47 48 49 50
000
ASCA44 KEWX 211620
RWRMX

LATIN AMERICA AND CARIBBEAN REGIONAL WEATHER ROUNDUP
NATIONAL WEATHER SERVICE AUSTIN/SAN ANTONIO TX
1100 AM CDT SUN SEP 21 2014

NOTE: "FAIR" INDICATED FEW OR NO CLOUDS BELOW 12,000 FEET WITH NO
SIGNIFICANT WEATHER AND/OR OBSTRUCTIONS TO VISIBILITY.

BAJA CALIFORNIA

CITY           SKY/WX    TMP DP  RH WIND       PRES   REMARKS
LORETO         MOSUNNY   88  73  62 CALM      29.85R HX  96
LA PAZ           N/A    N/A N/A N/A MISG        N/A
MEXICALI       SUNNY     86  64  48 CALM      29.87
S.J. DEL CABO  RAIN      79  75  89 SE14      29.88R
TIJUANA        MOSUNNY   70  57  64 N5        30.00R

NORTHWESTERN MEXICO

CITY           SKY/WX    TMP DP  RH WIND       PRES   REMARKS
CULIACAN       PTSUNNY   84  77  79 CALM      29.91  HX  94
DURANGO        SUNNY     70  57  64 NE5       30.29R
GUAYMAS        PTSUNNY   88  79  74 CALM      29.83  HX 102
HERMOSILLO     PTSUNNY   84  77  79 CALM      29.93  HX  94
CD. JUAREZ     PTSUNNY   77  68  73 CALM      30.12
LOS MOCHIS     MOSUNNY   84  73  70 E9        29.89R HX  91
OBREGON        PTSUNNY   82  73  74 E6        29.87

NORTHEASTERN MEXICO

CITY           SKY/WX    TMP DP  RH WIND       PRES   REMARKS
CHIHUAHUA      MOSUNNY   75  63  64 E6        30.20
MATAMOROS      PTSUNNY   84  77  79 N6        29.98  HX  94
MONCLOVA       CLOUDY   N/A N/A N/A NE7       30.08R FOG
MONTERREY      PTSUNNY   81  72  74 NE3       30.04R
NUEVO LAREDO   PTSUNNY   81  75  83 NE6       30.03
PIEDRAS NEGRAS PTSUNNY   81  72  74 E7        30.08R
REYNOSA        PTSUNNY   82  72  69 N5        29.98
SALTILLO       PTSUNNY   72  64  78 NW8       30.23R
TORREON        MOSUNNY   77  64  65 CALM      30.15R
CD. VICTORIA   PTSUNNY   79  75  89 N2        30.01

WESTERN MEXICO

CITY           SKY/WX    TMP DP  RH WIND       PRES   REMARKS
AGUASCALIENTES CLOUDY    66  55  68 N6        30.31
COLIMA         PTSUNNY   75  64  69 CALM      30.05R
DEL BAJIO      CLOUDY    66  59  77 S3        30.33R
GUADALAJARA    PTSUNNY   72  59  64 CALM      30.21
MANZANILLO     MOSUNNY   90  77  66 S6        29.90R HX 102
MAZATLAN       MOSUNNY   81  72  74 E8        29.89S
P. VALLARTA    MOSUNNY   82  66  57 NE3       29.93R
URUAPAN        FOG       66  66 100 S9        30.24R VSB 1/2
ZACATECAS      MOSUNNY   66  55  68 NE8       30.32S

CENTRAL MEXICO

CITY           SKY/WX    TMP DP  RH WIND       PRES   REMARKS
CUERNAVACA     PTSUNNY   72  63  73 CALM      30.19R
MEXICO CITY    CLOUDY    64  54  68 VRB3      30.37R
MORELIA        PTSUNNY   72  59  64 CALM      30.28
PUEBLA         PTSUNNY   72  63  73 CALM      30.39R
QUERETARO      CLOUDY    68  57  68 SE6       30.34S
S. LUIS POTOSI PTSUNNY   68  57  68 CALM      30.28R
TAMPICO        PTSUNNY   81  75  83 NW7       29.96R
TOLUCA         CLOUDY    61  48  63 CALM      30.44R FOG

SOUTHERN MEXICO

CITY           SKY/WX    TMP DP  RH WIND       PRES   REMARKS
ACAPULCO       CLOUDY    82  75  78 N3        29.91R
B. DE HUATULCO CLOUDY    81  75  83 E9        29.98
OAXACA         CLOUDY    72  61  68 E3        30.25F
P. ESCONDIDO   PTSUNNY   82  75  78 CALM      30.07R
VERACRUZ       PTSUNNY   84  75  74 NE3       29.93F HX  92
ZIHUATANEJO    CLOUDY    81  75  83 CALM      29.93S

YUCATAN PENINSULA

CITY           SKY/WX    TMP DP  RH WIND       PRES   REMARKS
CAMPECHE       PTSUNNY   84  79  84 SE5       29.91R HX  96
CANCUN         PTSUNNY   88  77  70 SE14      29.97R HX 100
CHETUMAL       PTSUNNY   86  77  74 E14       29.91R HX  97
CD. DEL CARMEN MOSUNNY   86  77  74 SE7       29.92  HX  97
COZUMEL        PTSUNNY   84  77  79 SE16      29.97R HX  94
MERIDA         PTSUNNY   86  77  74 SE9       29.94S HX  97
MINATITLAN     MOSUNNY   86  73  66 SW7       29.90  HX  93
TAPACHULA      PTSUNNY   82  79  89 CALM      29.95F HX  93
TUX. GUTIERREZ MOSUNNY   79  70  73 E5        30.02R
VILLAHERMOSA   MOSUNNY   86  75  70 CALM      29.94R HX  95

CENTRAL AMERICA

CITY           SKY/WX    TMP DP  RH WIND       PRES   REMARKS
BELIZE CITY    PTSUNNY   86  79  79 E7        29.91  HX  99
MANAGUA        MOSUNNY   84  75  74 E9        29.92S HX  92

CARIBBEAN

CITY           SKY/WX    TMP DP  RH WIND       PRES   REMARKS
ARUBA          MOSUNNY   91  73  55 E18       29.92F HX 100
CURACAO        MOSUNNY   88  77  70 E13       29.94F HX 100
KINGSTON       MOSUNNY   90  79  70 SE21      29.97S HX 105
NASSAU         MOSUNNY   90  75  62 S6        30.03  HX 100
SAN JUAN       MOSUNNY   88  79  74 NE18      30.03F HX 102
SANTO DOMINGO  TSTM      77  75  94 E5        30.00S
ST. CROIX      MOSUNNY   91  75  59 E16G23    30.03F HX 102
ST. KITTS      MOSUNNY   84  77  79 NE14      30.00F HX  94
ST. MAARTEN    MOSUNNY   88  73  62 E15       30.00F HX  96
ST. THOMAS     PTSUNNY   88  72  58 E8G20     30.03F HX  94

$$




USA.gov is the U.S. government's official web portal to all federal, state and local government web resources and services.